Weather reports worldwide

Advertisment
Fair Isle, United Kingdom (3008): temperature & dewpoint: 16.01.2019 03:00:00 - 22.01.2019 03:00:00 (GMT)Fair Isle, United Kingdom (3008): temperature -20cm & temperature -100cm: 16.01.2019 03:00:00 - 22.01.2019 03:00:00 (GMT)Fair Isle, United Kingdom (3008): wind speed & gusts: 16.01.2019 03:00:00 - 22.01.2019 03:00:00 (GMT)Fair Isle, United Kingdom (3008): wind direction: 16.01.2019 03:00:00 - 22.01.2019 03:00:00 (GMT)Fair Isle, United Kingdom (3008): reduced air pressure: 16.01.2019 03:00:00 - 22.01.2019 03:00:00 (GMT)Fair Isle, United Kingdom (3008): visibility: 16.01.2019 03:00:00 - 22.01.2019 03:00:00 (GMT)Fair Isle, United Kingdom (3008): precipitation: 16.01.2019 03:00:00 - 22.01.2019 03:00:00 (GMT)
Date & Time tt [°C] td [°C] tt -20cm [°C] tt -100cm [°C] ff [km/h] ff [kn] fx [km/h] fx [kn] dd ppp [hPa] vv [km] rr [mm]
22.01.2019 03:00:00 - - - - - - - - - - - -
22.01.2019 02:00:00 3,6 2,6 - - 26 14 - - WSW 994,2 16 0,0
22.01.2019 01:00:00 4,1 2,8 - - 34 18 55 30 SW 994,4 14 0,4
22.01.2019 00:00:00 4,6 3,5 - - 44 24 65 35 SSW 994,6 8 0,2
21.01.2019 23:00:00 4,2 3,0 - - 48 26 67 36 S 995,5 8 0,4
21.01.2019 22:00:00 4,6 3,4 - - 54 29 72 39 S 996,2 13 0,4
21.01.2019 21:00:00 5,2 2,8 - - 55 30 72 39 S 997,3 16 0,0
21.01.2019 20:00:00 5,1 2,4 - - 50 27 67 36 S 998,5 20 0,0
21.01.2019 19:00:00 5,1 2,1 - - 48 26 67 36 S 999,8 20 0,0
21.01.2019 18:00:00 5,1 2,1 - - 44 24 57 31 S 1001,1 26 0,0
21.01.2019 17:00:00 5,3 2,2 - - 39 21 55 30 SSE 1002,4 30 0,0
21.01.2019 16:00:00 5,5 1,5 - - 39 21 54 29 S 1004,0 30 0,0
21.01.2019 15:00:00 5,6 1,9 - - 39 21 61 33 S 1005,3 30 0,0
21.01.2019 14:00:00 5,7 2,4 - - 42 23 55 30 S 1006,9 28 0,0
21.01.2019 13:00:00 5,9 3,3 - - 39 21 54 29 S 1008,3 21 0,0
21.01.2019 12:00:00 5,8 3,3 - - 37 20 52 28 S 1009,7 22 0,0
21.01.2019 11:00:00 5,6 3,2 - - 39 21 52 28 S 1011,2 25 0,0
21.01.2019 10:00:00 5,7 2,8 - - 35 19 46 25 SSW 1012,2 22 0,0
21.01.2019 09:00:00 5,6 2,6 5,7 6,7 31 17 - - SSW 1013,3 26 0,0
21.01.2019 08:00:00 5,4 2,5 - - 29 16 - - SW 1013,8 16 0,0
21.01.2019 07:00:00 5,4 3,0 - - 28 15 - - SW 1014,7 13 0,0
21.01.2019 06:00:00 4,9 2,9 - - 24 13 - - SW 1015,4 30 0,0
21.01.2019 05:00:00 4,7 2,8 - - 34 18 - - SW 1016,1 22 0,0
21.01.2019 04:00:00 5,0 2,3 - - 31 17 - - SW 1016,7 23 0,0
21.01.2019 03:00:00 4,8 1,7 - - 24 13 - - WSW 1017,1 28 0,0
21.01.2019 02:00:00 5,3 1,8 - - 28 15 - - W 1017,2 18 0,0
21.01.2019 01:00:00 5,6 0,3 - - 24 13 - - W 1017,4 29 0,0
21.01.2019 00:00:00 5,8 -0,9 - - 26 14 - - W 1017,7 30 0,0
20.01.2019 23:00:00 5,5 -0,4 - - 29 16 - - WNW 1017,7 35 0,0
20.01.2019 22:00:00 4,6 0,1 - - 31 17 55 30 WNW 1017,4 17 0,0
20.01.2019 21:00:00 5,3 -1,1 - - 31 17 57 31 WNW 1016,8 23 0,0
20.01.2019 20:00:00 4,0 1,2 - - 41 22 67 36 WNW 1016,3 14 0,4
20.01.2019 19:00:00 4,5 0,6 - - 28 15 52 28 WNW 1015,6 28 0,0
20.01.2019 18:00:00 4,4 0,3 - - 39 21 61 33 W 1015,3 30 0,0
20.01.2019 17:00:00 3,6 -0,9 - - 29 16 68 37 NW 1014,8 40 0,0
20.01.2019 16:00:00 4,6 1,0 - - 31 17 59 32 NW 1013,8 7 0,0
20.01.2019 15:00:00 5,6 0,6 - - 39 21 59 32 WNW 1012,9 30 0,0
20.01.2019 14:00:00 5,6 1,9 - - 28 15 70 38 WNW 1012,4 30 0,8
20.01.2019 13:00:00 6,0 2,2 - - 35 19 57 31 WNW 1011,9 26 0,0
20.01.2019 12:00:00 5,6 3,5 - - 35 19 57 31 WNW 1011,4 9 1,2
20.01.2019 11:00:00 5,4 4,2 - - 31 17 52 28 WSW 1011,1 7 1,6
20.01.2019 10:00:00 5,7 3,9 - - 24 13 - - SSW 1010,8 40 0,0
20.01.2019 09:00:00 4,7 3,2 5,7 6,7 18 10 - - SSW 1010,8 30 0,0
20.01.2019 08:00:00 4,1 2,0 - - 18 10 - - SSW 1010,8 40 0,0
20.01.2019 07:00:00 5,0 2,9 - - 22 12 - - SSW 1010,6 30 0,0
20.01.2019 06:00:00 5,1 2,5 - - 21 11 - - SW 1010,6 30 0,0
20.01.2019 05:00:00 5,5 3,6 - - 18 10 - - SW 1010,7 25 0,0
20.01.2019 04:00:00 5,2 3,3 - - 21 11 - - WSW 1010,7 40 0,0
20.01.2019 03:00:00 5,6 3,6 - - 13 7 - - SSW 1010,8 45 0,2
20.01.2019 02:00:00 5,9 4,1 - - 13 7 - - SSE 1010,8 35 0,0
20.01.2019 01:00:00 5,4 3,5 - - 16 9 - - SE 1011,0 30 1,4
20.01.2019 00:00:00 5,8 4,1 - - 18 10 - - ESE 1011,1 16 0,0
19.01.2019 23:00:00 6,3 3,9 - - 26 14 - - ESE 1011,1 35 0,0
19.01.2019 22:00:00 6,0 3,2 - - 29 16 - - E 1011,2 40 0,0
19.01.2019 21:00:00 5,9 2,7 - - 28 15 46 25 E 1011,1 35 0,0
19.01.2019 20:00:00 5,8 2,6 - - 24 13 - - E 1011,0 25 0,0
19.01.2019 19:00:00 5,7 2,6 - - 22 12 - - ESE 1011,1 50 0,0
19.01.2019 18:00:00 5,5 2,4 - - 24 13 - - E 1011,1 40 0,0
19.01.2019 17:00:00 5,7 2,8 - - 24 13 - - E 1010,7 35 0,0
19.01.2019 16:00:00 5,5 2,5 - - 22 12 - - ESE 1010,8 29 0,4
19.01.2019 15:00:00 5,7 2,7 - - 21 11 - - ESE 1010,6 45 0,0
19.01.2019 14:00:00 5,8 2,7 - - 21 11 - - ESE 1010,8 50 0,0
19.01.2019 13:00:00 5,7 2,9 - - 22 12 - - ESE 1010,8 50 0,0
19.01.2019 12:00:00 5,7 2,3 - - 24 13 - - E 1010,9 45 0,0
19.01.2019 11:00:00 5,7 1,3 - - 24 13 - - E 1011,2 45 0,0
19.01.2019 10:00:00 5,8 1,5 - - 22 12 - - ESE 1011,0 45 0,0
19.01.2019 09:00:00 5,4 1,7 5,7 6,9 21 11 - - SE 1010,7 40 0,0
19.01.2019 08:00:00 5,4 2,0 - - 21 11 - - SE 1010,3 30 0,0
19.01.2019 07:00:00 5,2 1,6 - - 21 11 - - SE 1010,2 35 0,0
19.01.2019 06:00:00 5,5 -0,7 - - 16 9 - - SE 1009,9 35 0,0
19.01.2019 05:00:00 5,4 -1,0 - - 24 13 - - SSE 1010,0 40 0,0
19.01.2019 04:00:00 5,3 -0,6 - - 21 11 - - SSE 1010,2 35 0,0
19.01.2019 03:00:00 5,2 -0,9 - - 22 12 - - SSE 1010,3 45 0,0
19.01.2019 02:00:00 5,4 -0,7 - - 24 13 - - SSE 1010,4 35 0,0
19.01.2019 01:00:00 5,6 0,1 - - 28 15 - - SSE 1010,6 35 0,0
19.01.2019 00:00:00 4,9 -1,4 - - 26 14 - - SSE 1010,9 35 0,0
18.01.2019 23:00:00 5,4 -0,2 - - 29 16 - - SSE 1010,8 40 0,0
18.01.2019 22:00:00 5,3 0,3 - - 31 17 - - SSE 1010,8 30 0,0
18.01.2019 21:00:00 4,9 -1,2 - - 28 15 - - SSE 1010,9 30 0,0
18.01.2019 20:00:00 5,1 -0,8 - - 31 17 - - SSE 1011,1 40 0,0
18.01.2019 19:00:00 4,9 -1,3 - - 34 18 - - S 1011,0 30 0,0
18.01.2019 18:00:00 4,9 -0,8 - - 28 15 - - SSE 1011,3 30 0,0
18.01.2019 17:00:00 4,5 -1,1 - - 26 14 - - S 1011,6 30 0,0
18.01.2019 16:00:00 4,3 -2,0 - - 28 15 - - SSE 1011,9 45 0,0
18.01.2019 15:00:00 4,3 -1,4 - - 24 13 - - S 1011,9 30 0,0
18.01.2019 14:00:00 4,2 -1,3 - - 24 13 - - S 1012,2 35 0,0
18.01.2019 13:00:00 4,8 -0,8 - - 22 12 - - S 1012,6 40 0,0
18.01.2019 12:00:00 3,7 0,2 - - 18 10 - - S 1013,0 30 0,0
18.01.2019 11:00:00 3,8 -0,5 - - 16 9 - - S 1013,3 40 0,0
18.01.2019 10:00:00 2,9 -1,7 - - 16 9 - - S 1013,4 35 0,0
18.01.2019 09:00:00 2,6 -1,8 5,9 7,0 13 7 - - SSW 1013,4 50 0,0
18.01.2019 08:00:00 2,0 -2,4 - - 11 6 - - S 1013,1 50 0,0
18.01.2019 07:00:00 3,5 -1,1 - - 13 7 - - SW 1013,1 35 0,0
18.01.2019 06:00:00 3,6 -2,5 - - 9 5 - - ESE 1013,2 40 0,0
18.01.2019 05:00:00 2,7 -3,0 - - 4 2 - - E 1013,4 50 0,0
18.01.2019 04:00:00 1,7 -3,6 - - 4 2 - - N 1013,5 45 0,0
18.01.2019 03:00:00 2,9 -3,1 - - 5 3 - - N 1013,5 40 0,0
18.01.2019 02:00:00 2,5 -3,2 - - 9 5 - - N 1013,5 45 0,0
18.01.2019 01:00:00 3,3 -2,3 - - 8 4 - - NW 1013,7 45 0,0
18.01.2019 00:00:00 3,5 -2,6 - - 16 9 - - WNW 1013,7 40 0,0
17.01.2019 23:00:00 2,1 0,2 - - 5 3 - - NW 1013,8 26 0,0
17.01.2019 22:00:00 1,7 -1,1 - - 15 8 - - WNW 1013,9 24 0,0
17.01.2019 21:00:00 1,8 -1,0 - - 11 6 - - N 1013,9 35 0,0
17.01.2019 20:00:00 1,9 -1,1 - - 11 6 - - N 1013,7 27 0,0
17.01.2019 19:00:00 3,6 -4,3 - - 24 13 - - NNW 1013,3 40 0,0
17.01.2019 18:00:00 3,6 -3,5 - - 24 13 - - NNW 1013,1 40 0,0
17.01.2019 17:00:00 3,3 -0,3 - - 15 8 - - NW 1013,0 22 0,0
17.01.2019 16:00:00 3,5 -2,3 - - 24 13 48 26 NNW 1012,9 27 0,0
17.01.2019 15:00:00 3,6 -0,7 - - 31 17 - - NNW 1012,0 16 0,0
17.01.2019 14:00:00 4,3 -3,5 - - 26 14 50 27 NNW 1011,5 30 0,0
17.01.2019 13:00:00 4,2 -1,9 - - 29 16 59 32 NNW 1010,9 24 0,0
17.01.2019 12:00:00 4,3 -2,4 - - 37 20 52 28 NNW 1010,7 19 0,0
17.01.2019 11:00:00 4,1 -2,5 - - 37 20 63 34 N 1010,0 19 0,0
17.01.2019 10:00:00 4,1 -3,1 - - 42 23 68 37 N 1009,0 23 0,0
17.01.2019 09:00:00 4,0 -3,0 6,4 7,2 46 25 68 37 N 1007,7 18 0,0
17.01.2019 08:00:00 4,0 -3,0 - - 46 25 76 41 N 1006,4 22 0,0
17.01.2019 07:00:00 3,8 -2,0 - - 48 26 74 40 N 1005,2 21 0,0
17.01.2019 06:00:00 3,3 -3,4 - - 52 28 72 39 N 1003,9 29 0,0
17.01.2019 05:00:00 2,2 -1,2 - - 39 21 81 44 N 1002,9 20 0,0
17.01.2019 04:00:00 2,0 -1,5 - - 59 32 83 45 NNW 1001,4 16 0,0
17.01.2019 03:00:00 2,2 -2,4 - - 54 29 94 51 N 999,7 40 0,0
17.01.2019 02:00:00 2,4 -1,4 - - 50 27 89 48 N 997,8 18 0,0
17.01.2019 01:00:00 2,5 -2,5 - - 55 30 85 46 N 996,3 18 0,0
17.01.2019 00:00:00 2,4 -2,0 - - 48 26 91 49 NNW 996,1 24 0,2
16.01.2019 23:00:00 1,2 -1,3 - - 41 22 72 39 NW 996,2 25 0,0
16.01.2019 22:00:00 0,6 -1,0 - - 31 17 59 32 NNW 996,1 25 0,0
16.01.2019 21:00:00 -0,7 -1,7 - - 46 25 74 40 NW 996,2 0,5 0,0
16.01.2019 20:00:00 1,3 -1,6 - - 50 27 78 42 NNW 995,1 20 0,0
16.01.2019 19:00:00 1,0 -1,2 - - 37 20 68 37 NNW 994,5 9 0,2
16.01.2019 18:00:00 1,1 -0,6 - - 35 19 55 30 NNW 993,8 11 0,2
16.01.2019 17:00:00 2,1 -0,5 - - 31 17 48 26 N 993,1 19 0,0
16.01.2019 16:00:00 1,8 0,0 - - 34 18 55 30 N 992,5 28 1,0
16.01.2019 15:00:00 3,4 1,4 - - 31 17 - - NNE 991,5 23 0,6
16.01.2019 14:00:00 3,4 1,8 - - 26 14 - - N 991,2 17 0,4
16.01.2019 13:00:00 4,6 2,7 - - 13 7 - - NNW 990,8 24 1,0
16.01.2019 12:00:00 4,6 2,0 - - 16 9 - - NNW 990,7 9 0,0
16.01.2019 11:00:00 5,1 1,5 - - 16 9 - - NNW 990,4 35 0,0
16.01.2019 10:00:00 4,7 1,9 - - 21 11 - - NNW 989,9 28 0,0
16.01.2019 09:00:00 4,3 1,8 6,7 7,2 24 13 - - N 989,4 30 0,0
16.01.2019 08:00:00 4,5 2,1 - - 26 14 55 30 N 988,7 18 0,0
16.01.2019 07:00:00 4,3 2,5 - - 39 21 65 35 NNW 987,8 17 0,0
16.01.2019 06:00:00 4,1 3,3 - - 42 23 81 44 NNW 986,4 8 0,0
16.01.2019 05:00:00 7,0 5,3 - - 50 27 74 40 W 983,1 15 0,0
16.01.2019 04:00:00 7,2 5,4 - - 54 29 96 52 WSW 982,8 8 0,0
16.01.2019 03:00:00 7,0 4,4 - - 72 39 94 51 WSW 984,4 11 0,0

tt = temperature
td = dewpoint
tt -20cm = temperature -20cm
tt -100cm = temperature -100cm
ff = wind speed
fx = gusts
dd = wind direction
ppp = reduced air pressure
vv = visibility
rr = precipitation

Next stations